Find Starlink 5594

NORAD ID: 55742 Int'l Des: 2023-028 Owner: SPXS Country: US Constellation: starlink operational
LEOCIRCULAR

Live Position

Loading 3D Globe...

About Starlink 5594

Description loading...

Upcoming Passes

Passes for default location (London). Set your location on the main map for personalized predictions.

Altitude History

Loading altitude history...

Two-Line Element Set

1 55742U 23028B 26133.50002315 -.00051697 00000-0 -43544-2 0 9991
2 55742 70.0005 81.1878 0002328 284.4932 110.7163 14.98353751 5805
Epoch: May 13, 2026 • Age: 4 hours

Current Status

Altitude 596.0 km
Velocity 7.56 km/s
Sub-Earth Point -70.03°S, 129.28°W
Launch Date Mar 3, 2023
Age 3.1 years
Type internet

Technical Details

Classification Payload
Mass 305.00 kg
Dry Mass 290.00 kg
Total Mass 305.00 kg
Length 0.20 m
Diameter 2.80 m
Span 9.00 m
Shape Box + pan
Manufacturer SPXS
Bus Type Starlink
Phase Status In Orbit
Owner/State SPXS/US

Most Searched